Wetbulb
65.28 65.00 65.95 67.03 68.72 69.14 69.72 70.01 70.98 71.16 71.05 72.05 73.30 73.75 74.04 74.64 75.00 73.74 73.81 75.03 75.61 74.40 74.11 74.47 75.82 76.20 77.02 77.33 76.47 75.96 75.01 74.97 76.09
64.05 63.24 65.40 66.79 68.72 67.87 69.91 70.37 70.87 71.29 71.41 72.03 73.29 73.39 74.13 74.24 74.75 74.55 74.16 74.96 75.06 74.45 75.05 74.76 75.29 75.27 75.76 76.65 76.44 75.93 76.08 74.69 75.57
64.08 64.18 64.42 66.81 68.34 68.95 69.72 70.78 71.47 71.98 72.23 72.07 72.75 73.58 73.96 73.91 74.40 75.15 75.07 74.90 74.92 74.94 74.84 75.17 75.59 74.85 75.03 75.93 76.35 76.58 76.48 76.69 76.60
64.35 64.05 64.07 65.24 66.18 66.57 68.40 70.87 71.18 71.75 72.36 72.58 72.47 73.15 73.86 73.91 73.91 74.26 74.94 74.89 75.44 75.59 75.02 74.96 74.38 74.86 74.83 75.03 75.25 75.43 75.79 76.37 76.24
63.85 64.18 64.60 65.58 66.02 66.15 68.67 69.59 70.79 71.29 72.22 72.27 72.84 73.43 74.01 73.91 74.07 74.42 74.36 74.72 75.21 75.12 74.93 74.80 74.79 74.68 74.21 74.29 74.76 74.65 75.14 75.20 75.18
64.96 65.39 64.96 65.89 65.82 65.75 66.86 69.33 70.33 70.98 71.84 72.43 73.01 73.49 73.62 73.77 73.49 73.92 74.44 74.81 74.92 74.78 74.60 74.49 73.87 73.45 73.06 74.26 74.08 74.18 75.40 76.32 75.90
64.40 65.27 65.79 66.53 66.85 65.50 66.80 69.99 70.67 70.71 71.28 70.66 72.87 73.05 73.31 73.35 73.70 74.28 74.51 74.89 73.91 73.63 73.95 74.05 74.18 74.30 74.57 74.20 74.42 75.73 75.84 75.24 75.19
63.75 64.09 65.44 66.67 67.44 68.00 67.39 67.43 69.93 71.78 70.43 70.48 72.78 72.23 73.02 73.48 74.95 74.22 74.69 73.70 73.82 73.08 73.35 73.50 74.06 73.84 73.68 74.40 74.17 73.67 73.11 73.95 73.75
63.06 64.00 65.10 66.33 66.97 66.88 66.22 66.71 68.38 69.07 71.06 70.73 71.26 72.76 73.06 74.00 72.99 71.80 72.78 71.92 72.90 72.77 72.05 71.40 73.00 72.58 69.02 68.60 70.12 60.39 60.54 64.05 71.13
63.54 64.09 65.29 66.42 66.66 66.09 66.12 66.09 67.32 67.25 68.79 70.31 70.63 71.46 71.69 71.44 70.39 71.36 70.34 70.44 71.19 71.48 70.02 69.52 70.86 69.45 67.07 66.26 62.22 58.19 59.33 60.50 67.80
62.52 62.84 63.47 65.03 66.40 65.79 67.02 68.49 68.61 67.72 68.19 68.51 68.57 68.06 68.58 69.34 68.69 68.67 69.79 69.48 69.47 69.54 69.41 69.12 68.17 65.10 61.76 60.14 58.80 55.69 58.77 62.47 68.07
60.94 60.78 61.13 61.75 62.95 63.76 65.07 66.67 69.66 69.14 68.84 68.58 68.77 67.49 68.93 68.53 69.00 68.19 67.99 67.58 68.69 69.12 69.37 67.47 63.75 60.61 58.70 59.06 57.88 54.01 58.91 65.15 67.80
60.00 60.45 60.34 59.94 60.32 60.99 61.69 62.42 64.45 67.22 67.61 67.92 67.74 66.88 67.20 68.30 68.37 68.71 68.51 68.49 67.92 67.24 66.70 63.95 61.06 59.62 58.20 55.22 57.72 52.61 54.17 63.01 68.39
59.52 60.14 59.30 59.27 59.23 58.51 59.82 61.42 62.90 63.28 63.97 63.19 64.99 65.00 65.57 64.96 63.94 65.97 66.95 66.65 66.72 64.71 62.38 61.20 60.32 58.89 58.04 56.18 55.95 54.39 51.85 53.27 66.23
58.80 58.54 58.69 59.21 58.87 57.90 58.63 59.02 59.03 58.37 58.81 61.29 62.48 62.83 63.42 63.51 62.58 61.61 62.51 63.98 65.50 63.22 60.87 59.70 58.47 56.91 55.27 54.81 52.22 50.78 49.52 50.54 52.06
60.41 59.89 59.06 58.44 57.53 56.43 56.68 57.00 57.80 55.12 55.74 58.11 59.26 59.59 58.91 58.31 60.73 59.49 58.47 60.66 62.94 63.35 62.51 60.44 59.34 56.78 53.83 51.93 52.18 51.70 48.88 48.68 49.13
59.94 60.03 59.09 59.42 58.47 55.05 54.84 54.83 54.74 54.70 55.21 55.74 55.76 54.69 55.19 56.36 54.19 55.07 55.83 54.62 57.77 60.06 61.31 60.42 58.29 57.77 57.20 54.25 53.52 53.48 52.54 51.83 52.57
60.18 59.40 58.21 58.06 57.70 56.77 55.86 55.65 55.34 55.19 55.53 55.84 54.84 54.66 52.60 50.90 50.67 50.34 49.93 49.83 50.88 53.00 48.40 49.18 56.77 54.84 58.01 57.56 54.87 53.10 47.05 46.70 49.59
58.48 57.78 58.16 57.58 56.45 55.63 55.34 54.94 54.93 55.78 56.36 56.44 54.94 53.90 53.65 53.01 51.88 50.34 50.10 49.27 47.68 43.41 43.08 43.15 40.98 41.96 49.08 50.33 45.54 41.75 40.44 39.84 40.36
57.00 59.80 59.47 58.53 57.42 55.92 55.47 55.01 55.09 57.36 58.61 57.84 57.36 56.84 56.91 54.90 54.20 54.23 53.83 53.97 54.16 53.81 48.64 42.03 40.69 40.12 41.27 41.32 42.68 40.21 39.43 39.20 40.05
MSLP
1009.57 1009.35 1010.16 1011.01 1011.64 1012.55 1013.34 1014.02 1014.86 1015.62 1016.36 1017.03 1017.76 1018.22 1018.60 1018.88 1019.06 1019.08 1019.21 1019.46 1019.58 1019.70 1019.79 1019.85 1019.89 1020.08 1020.18 1020.40 1020.52 1020.66 1020.79 1020.56 1020.68
1008.91 1009.30 1009.72 1010.55 1011.36 1012.22 1012.89 1013.64 1014.26 1015.01 1015.77 1016.48 1017.14 1017.68 1018.26 1018.63 1018.91 1019.12 1019.12 1019.40 1019.61 1019.67 1019.85 1019.88 1019.91 1019.86 1019.92 1020.01 1020.26 1020.40 1020.49 1020.42 1020.46
1008.60 1009.29 1009.66 1010.54 1011.12 1011.81 1012.41 1013.26 1014.00 1014.68 1015.43 1015.84 1016.52 1017.17 1017.76 1018.20 1018.54 1018.88 1019.04 1019.27 1019.40 1019.50 1019.55 1019.56 1019.76 1019.78 1019.71 1019.82 1019.94 1020.05 1020.18 1020.36 1020.28
1008.34 1009.12 1009.41 1010.40 1011.19 1011.82 1012.27 1013.02 1013.78 1014.48 1015.10 1015.70 1016.23 1016.84 1017.37 1017.86 1018.25 1018.62 1018.88 1019.10 1019.14 1019.20 1019.36 1019.40 1019.54 1019.63 1019.68 1019.75 1019.80 1019.83 1020.05 1020.14 1020.17
1008.06 1008.81 1009.44 1010.44 1011.26 1011.86 1012.43 1012.94 1013.60 1014.22 1014.96 1015.34 1015.83 1016.43 1017.00 1017.38 1017.86 1018.31 1018.53 1018.73 1018.98 1019.11 1019.09 1019.09 1019.30 1019.38 1019.54 1019.66 1019.80 1019.84 1019.80 1019.76 1019.77
1008.40 1009.02 1009.82 1010.94 1011.77 1012.12 1012.53 1012.92 1013.32 1013.96 1014.60 1014.98 1015.51 1016.22 1016.66 1017.03 1017.41 1017.86 1018.24 1018.54 1018.82 1018.97 1019.00 1019.00 1019.01 1019.28 1019.47 1019.53 1019.63 1019.61 1019.56 1019.56 1019.50
1008.77 1009.22 1009.86 1010.57 1011.49 1012.15 1012.27 1012.75 1013.11 1013.82 1014.35 1014.83 1015.21 1015.80 1016.16 1016.60 1016.86 1017.22 1017.71 1018.26 1018.58 1018.78 1018.98 1019.05 1019.02 1019.12 1019.29 1019.44 1019.60 1019.54 1019.38 1019.32 1019.19
1009.12 1009.25 1009.64 1010.32 1010.82 1011.60 1012.19 1012.59 1013.23 1013.63 1014.40 1014.75 1015.00 1015.30 1015.68 1015.89 1016.36 1016.83 1017.32 1017.79 1018.21 1018.46 1018.64 1018.94 1019.06 1019.13 1019.29 1019.47 1019.74 1019.91 1019.78 1019.61 1019.44
1009.64 1009.78 1010.11 1010.66 1011.18 1011.66 1012.15 1012.34 1013.26 1014.18 1014.60 1014.77 1014.96 1015.30 1015.30 1015.51 1016.30 1016.65 1017.15 1017.58 1017.86 1018.12 1018.46 1018.79 1019.00 1019.18 1019.45 1019.88 1020.11 1020.64 1020.39 1020.12 1019.81
1010.09 1010.30 1010.55 1011.02 1011.64 1012.30 1012.46 1013.08 1013.50 1014.13 1014.77 1015.00 1015.19 1015.30 1015.54 1015.92 1016.08 1016.50 1017.05 1017.40 1017.76 1018.05 1018.25 1018.78 1018.70 1019.20 1019.60 1019.98 1020.44 1020.58 1020.24 1020.12 1019.76
1011.18 1011.52 1011.64 1011.67 1011.96 1012.67 1013.15 1013.59 1013.95 1014.34 1014.93 1015.02 1015.08 1015.42 1015.53 1015.94 1016.22 1016.43 1016.76 1017.25 1017.63 1017.91 1017.90 1018.40 1018.53 1019.20 1019.68 1020.08 1020.34 1020.49 1020.28 1019.99 1019.86
1012.44 1012.67 1012.96 1013.10 1013.01 1013.10 1013.59 1013.89 1014.05 1014.27 1014.78 1015.27 1015.11 1015.50 1015.92 1016.15 1016.18 1016.56 1016.81 1016.99 1017.33 1017.60 1017.55 1018.18 1018.93 1019.55 1020.03 1020.39 1020.56 1020.60 1020.13 1020.10 1020.02
1013.34 1013.48 1013.70 1013.90 1013.99 1013.98 1013.95 1014.21 1014.14 1014.37 1014.57 1014.83 1015.24 1015.52 1015.74 1015.86 1015.60 1016.07 1016.60 1016.90 1017.19 1017.39 1017.74 1018.63 1019.46 1019.95 1020.24 1020.47 1020.82 1020.47 1020.36 1020.08 1020.06
1014.19 1014.33 1014.42 1014.56 1014.73 1014.66 1014.78 1014.63 1014.74 1015.00 1015.09 1015.41 1015.70 1015.82 1016.04 1016.36 1016.44 1016.27 1016.71 1016.81 1017.12 1017.54 1018.15 1018.70 1019.85 1020.50 1020.54 1020.52 1020.64 1020.72 1020.46 1020.38 1020.32
1014.92 1014.87 1015.02 1015.06 1015.18 1015.47 1015.47 1015.51 1015.50 1015.67 1015.88 1016.06 1016.22 1016.51 1016.49 1016.19 1017.00 1016.92 1017.15 1017.53 1017.54 1017.72 1018.58 1019.25 1020.13 1020.50 1020.69 1020.75 1020.69 1020.69 1020.86 1020.97 1020.64
1015.02 1015.16 1015.47 1015.62 1015.77 1015.94 1016.22 1016.26 1016.19 1016.43 1016.90 1016.91 1017.08 1017.30 1017.48 1017.66 1017.50 1017.84 1017.90 1018.04 1018.19 1018.37 1018.87 1019.46 1019.99 1020.30 1020.85 1020.89 1021.00 1021.28 1021.40 1021.36 1021.08
1015.22 1015.53 1015.78 1015.94 1016.17 1016.48 1016.98 1017.30 1017.23 1017.28 1017.46 1017.52 1017.65 1017.93 1018.31 1018.26 1018.34 1018.29 1019.05 1019.02 1019.77 1019.31 1019.66 1019.97 1020.20 1020.54 1020.81 1020.97 1021.17 1021.42 1021.47 1021.50 1021.41
1015.48 1015.87 1016.26 1016.28 1016.54 1016.84 1017.39 1017.86 1017.81 1017.89 1018.08 1018.14 1018.18 1018.32 1018.57 1018.81 1018.86 1019.10 1019.85 1020.82 1020.95 1020.47 1020.96 1020.80 1020.72 1020.63 1020.62 1020.90 1021.40 1021.50 1021.79 1021.64 1021.95
1016.19 1016.47 1016.53 1016.86 1017.24 1017.51 1017.85 1018.09 1018.23 1018.23 1018.57 1018.73 1018.54 1018.58 1018.95 1019.06 1019.47 1020.04 1020.38 1020.56 1020.66 1020.78 1020.99 1021.15 1020.88 1020.98 1021.07 1021.53 1021.76 1021.88 1022.04 1022.06 1022.20
1016.58 1016.64 1016.76 1017.12 1017.54 1017.78 1017.95 1018.21 1018.52 1018.61 1018.70 1018.75 1018.65 1018.82 1019.14 1019.43 1019.47 1019.60 1019.86 1020.08 1020.14 1020.22 1020.73 1020.76 1020.99 1021.53 1021.62 1021.98 1022.06 1022.10 1022.22 1022.30 1022.18
Wind_Speed
18 21 21 21 22 19 19 18 17 17 17 16 15 13 11 9 8 6 6 5 4 4 5 5 5 6 6 7 6 4 4 4 3
18 17 21 22 21 17 19 17 18 18 17 16 15 14 11 10 8 8 6 6 5 4 4 4 6 7 7 5 7 6 5 5 5
21 16 17 18 19 20 17 17 16 16 17 17 15 15 12 10 9 8 6 5 6 5 4 5 5 6 6 7 7 7 7 5 6
20 16 16 16 15 13 15 16 15 15 14 15 15 14 12 11 9 9 7 7 6 5 4 5 6 5 6 8 8 8 7 7 6
17 17 14 13 12 11 14 17 15 15 13 14 14 13 13 11 9 9 9 7 5 4 4 3 4 5 6 7 7 7 8 8 8
15 15 12 10 9 11 12 15 14 14 14 14 12 12 12 11 11 10 9 8 6 4 4 4 4 4 6 6 7 7 8 8 9
11 13 15 12 13 11 10 10 12 11 10 9 11 13 13 13 13 12 11 9 8 5 3 2 4 5 5 5 7 8 7 6 6
10 12 17 17 16 14 11 9 8 9 6 7 11 11 13 14 12 10 11 9 7 5 4 3 1 2 3 5 4 3 4 5 6
11 10 12 12 10 10 10 9 7 5 9 8 6 11 12 11 9 9 9 5 6 5 4 3 4 3 3 1 2 4 6 5 7
7 8 8 9 10 7 5 4 6 5 6 6 8 6 6 8 9 10 7 5 5 6 5 4 5 4 2 0 1 5 8 7 6
8 8 7 7 8 8 7 8 10 9 7 6 5 5 5 6 5 4 5 5 7 5 4 5 3 3 2 3 2 7 7 6 5
8 9 7 5 5 5 6 6 8 10 9 8 8 7 8 6 7 8 6 6 6 4 5 4 3 3 5 4 2 7 4 3 2
8 9 7 6 6 7 7 4 3 3 7 7 6 4 4 4 5 6 5 5 6 4 4 5 5 5 5 5 3 9 6 3 1
7 7 8 7 7 7 6 5 5 5 7 6 4 5 6 6 7 4 3 5 3 5 7 7 6 6 4 6 5 7 9 7 2
7 8 8 8 9 8 7 6 7 9 8 5 6 4 4 8 8 5 6 6 3 6 9 7 7 5 4 2 4 6 8 8 9
8 9 8 7 8 10 10 8 8 10 6 7 7 8 8 7 8 8 7 5 3 3 5 6 5 4 3 3 3 3 4 6 6
8 7 7 7 9 10 11 8 9 8 6 6 8 9 6 8 8 9 8 8 5 4 2 2 3 3 3 2 2 2 2 3 3
7 7 6 7 9 10 11 9 10 9 7 7 9 8 8 7 6 8 7 4 3 3 2 2 0 1 1 2 2 2 4 2 1
8 7 7 8 9 9 9 9 9 9 7 6 7 8 6 6 6 5 4 4 4 7 5 2 6 5 3 3 5 7 6 6 4
7 7 10 10 9 9 8 8 8 7 7 7 8 8 7 5 4 4 4 4 3 3 3 3 3 4 5 5 3 5 4 4 2
Wind_Direction
202 192 198 198 196 192 194 196 191 191 191 201 200 202 207 207 212 218 228 230 223 237 238 238 222 222 225 208 204 215 218 226 231
193 190 193 197 195 193 192 194 197 195 193 197 198 202 201 206 207 217 229 228 221 228 236 228 227 223 220 215 213 212 203 222 220
199 187 183 197 198 193 193 195 197 201 200 198 196 199 204 206 209 211 217 219 222 236 242 222 224 211 220 219 212 217 219 220 207
199 186 177 185 191 188 190 191 194 201 204 204 199 199 201 207 207 205 205 212 218 226 234 223 213 228 228 218 214 214 220 236 237
186 177 181 189 188 177 189 192 194 198 204 205 210 202 196 201 200 203 202 197 186 185 186 206 238 232 241 239 226 224 226 234 237
204 188 161 167 166 176 186 195 192 197 201 208 202 200 202 199 200 201 201 183 169 172 197 207 210 243 246 237 240 242 235 231 236
207 196 182 175 188 185 172 187 194 193 197 193 196 201 201 207 203 198 193 185 178 171 148 218 228 237 255 244 241 244 241 243 248
177 180 185 190 188 192 180 154 177 193 190 185 198 194 204 207 206 192 190 184 182 179 175 218 239 267 266 270 268 273 287 277 272
180 180 189 183 179 168 169 161 162 172 201 184 188 214 216 205 194 168 184 176 198 205 202 211 228 231 113 157 294 7 310 280 271
161 163 164 162 168 161 132 150 153 152 161 188 180 167 192 201 171 184 174 172 194 213 186 187 210 166 144 264 303 322 287 269 260
83 87 84 109 119 109 113 171 179 158 180 191 188 186 180 207 197 197 221 179 211 210 159 187 127 147 155 174 163 327 287 231 234
75 73 65 58 52 93 117 144 165 164 179 189 178 171 193 191 203 189 191 188 187 173 138 149 135 122 165 178 70 349 18 206 157
63 78 89 88 72 71 64 30 26 164 157 156 182 184 181 179 194 201 199 176 162 137 141 139 118 134 146 107 115 31 36 31 191
74 84 82 79 76 72 55 54 86 80 91 83 103 102 102 90 62 51 135 140 128 123 105 116 130 154 131 101 66 54 34 28 152
88 79 80 72 77 62 61 63 84 84 74 63 82 85 98 115 99 91 76 47 49 114 117 136 141 152 124 94 82 51 55 48 42
101 92 84 82 85 80 61 52 76 76 47 62 75 74 74 61 81 69 56 61 14 111 154 146 160 158 148 144 136 111 76 66 64
100 91 91 99 95 81 77 70 69 77 81 82 82 81 76 82 81 76 47 50 345 38 56 124 116 147 156 130 128 114 55 33 15
94 87 85 89 94 96 91 85 78 76 71 81 87 89 80 66 72 75 70 66 337 69 45 6 157 85 105 154 190 131 89 71 93
111 112 103 85 89 95 94 88 86 84 80 90 95 85 75 81 99 109 120 128 107 59 92 90 67 56 35 111 75 122 118 122 120
120 112 107 101 99 96 101 104 95 87 77 81 82 86 88 91 73 73 83 87 74 88 126 94 89 76 78 35 101 156 151 148 144